Regional Weather Roundup
Issued by NWS

Home | Current Version | Previous Version | Graphics & Text | Print | Product List | Glossary On
Versions: 1 2 3 4 5 6 7 8 9 10 11 12 13 14 15 16 17 18 19 20 21 22 23 24 25 26 27 28 29 30 31 32 33 34 35 36 37 38 39 40 41 42 43 44 45 46 47 48 49 50
423
ASUS44 KJAN 310010
RWRMS

MISSISSIPPI HOURLY WEATHER ROUNDUP
NATIONAL WEATHER SERVICE JACKSON MS
700 PM CDT WED JUL 30 2014

NOTE: "FAIR: INDICATES FEW OR NO CLOUDS BELOW 12,000 FEET WITH NO
SIGNIFICANT WEATHER AND/OR OBSTRUCTIONS TO VISIBILITY.

MSZ001>002-007>008-010>013-018>021-025>028-034>036-310100-
NORTHWEST MISSISSIPPI

CITY           SKY/WX    TMP DP  RH WIND       PRES   REMARKS
CLARKSDALE     FAIR      77  66  69 CALM      30.08S
CLEVELAND      FAIR      77  68  73 N5        30.06S
GREENWOOD      PTSUNNY   76  66  71 N3        30.06F
6HR MIN TEMP:  76; 6HR MAX TEMP:  84;

GREENVILLE     LGT RAIN  77  66  68 W5        30.06S
6HR MIN TEMP:  77; 6HR MAX TEMP:  85; 6HR PCP: TRACE;

GRENADA        FAIR      73  64  73 N3        30.07S
OLIVE BRANCH   CLOUDY    75  63  64 SW6       30.07S
OXFORD         FAIR      75  61  60 CALM      30.09S
TUNICA         CLOUDY    77  63  61 SW3       30.07S
$$

MSZ003>006-009-014>017-022>024-029>033-037>039-310100-
NORTHEAST MISSISSIPPI

CITY           SKY/WX    TMP DP  RH WIND       PRES   REMARKS
BELMONT        FAIR      76  61  60 CALM      30.07S
COLUMBUS AFB   PTSUNNY   76  62  59 N2        30.06S
6HR MIN TEMP:  76; 6HR MAX TEMP:  83;

CORINTH        FAIR      75  64  69 CALM      30.06F
GOLDN TRIANGLE MOSUNNY   77  61  57 N7        30.07S
STARKVILLE     FAIR      77  59  53 CALM      30.06S
TUPELO         CLOUDY    78  61  55 NE5       30.06S
6HR MIN TEMP:  77; 6HR MAX TEMP:  84;

$$

MSZ040-058-310100-
CENTRAL MISSISSIPPI

CITY           SKY/WX    TMP DP  RH WIND       PRES   REMARKS
JACKSON INTL   PTSUNNY   81  59  47 N7        30.04S
6HR MIN TEMP:  81; 6HR MAX TEMP:  85;

JACKSON HAWKNS MOSUNNY   82  58  43 VRB6      30.05S
6HR MIN TEMP:  81; 6HR MAX TEMP:  85;

MERIDIAN KEY   PTCLDY    80  54  40 NE8       30.03S
6HR MIN TEMP:  80; 6HR MAX TEMP:  85;

MERIDIAN NAS   MOCLDY    79  56  45 N3        30.05R
6HR MIN TEMP:  79; 6HR MAX TEMP:  86;

RAYMOND        FAIR      79  73  83 CALM      30.05S
VICKSBURG      MOSUNNY   80  62  54 N9        30.04S
6HR MIN TEMP:  80; 6HR MAX TEMP:  87;

$$

MSZ059>079-310100-
SOUTH MISSISSIPPI

CITY           SKY/WX    TMP DP  RH WIND       PRES   REMARKS
BROOKHAVEN     FAIR      81  63  54 CALM      30.06S
COLUMBIA       FAIR      81  61  50 CALM      30.02R
HATTIESBURG    SUNNY     84  58  40 NE5       30.03R
6HR MIN TEMP:  82; 6HR MAX TEMP:  87;

MCCOMB         SUNNY     83  59  44 VRB5      30.03S
6HR MIN TEMP:  81; 6HR MAX TEMP:  85;

NATCHEZ        MOSUNNY   79  63  57 NE5       30.04S
6HR MIN TEMP:  79; 6HR MAX TEMP:  82;

PINE BELT      SUNNY     82  55  39 N5        30.05R
6HR MIN TEMP:  81; 6HR MAX TEMP:  86;

$$

MSZ080>082-310100-
COASTAL MISSISSIPPI

CITY           SKY/WX    TMP DP  RH WIND       PRES   REMARKS
BAY ST LOUIS   SUNNY    N/A N/A N/A NE5       30.00R
BILOXI         CLEAR     82  65  56 CALM      29.99S
6HR MIN TEMP:  82; 6HR MAX TEMP:  87;

PASCAGOULA     CLEAR     82  61  48 N5        29.99S
6HR MIN TEMP:  82; 6HR MAX TEMP:  87;

GULFPORT       CLEAR     88  56  33 N7        29.99R
6HR MIN TEMP:  87; 6HR MAX TEMP:  91;

$$



USA.gov is the U.S. government's official web portal to all federal, state and local government web resources and services.